FLOCK 2P-6 (41606 NORAD) Tracking and Keplerian Element Data

This shows tracking and keplerian element data for the satellite.

Feedback or suggestion? Click here.




ElementValue
Catalog41606
NameFLOCK 2P-6
Epoch Orbit23788
Epoch Day275.15850873
Epoch Year2020
RAAN336.7432
Inclination97.3165
Eccentricity0.001081
Argument of Perigee151.2127
Mean Anonmoly208.9711
Mean Motion15.2667778
Decay Rate2.968E-05
L11 41606U 16040H 20275.15850873 .00002968 00000-0 11569-3 0 9991
L22 41606 97.3165 336.7432 0010810 151.2127 208.9711 15.26677780237882



Live tracking and technical data element details for FLOCK 2P-6 (NORAD 41606). FLOCK 2P-6 can be tracked NOW for your location showing map with azimuth and elevation plus other details from your city location.







IsCatalogInMostPopularTable: catalog: 41606, numindb: 549
Update: records affected: 1



GetName: 41606 FLOCK 2P-6

Hit Count: updated at: Sat, 07 Mar 2026 05:47:30 GMT